GFSMW_850_temp_159.txt.gz
Temp
9 9 9 9 9 9 10 10 10 10 10 9 9 9 8 8 8 7 7 7 7 7 6 6 6 6 5 4 2 1 2 2 -1 -2 -0 0 1 1 1 2 3 4 6
9 8 8 9 9 10 9 9 9 9 9 9 8 8 8 8 7 7 7 7 6 6 5 5 5 5 5 4 2 1 -0 -1 -2 -5 -3 -1 1 1 4 3 2 3 4
7 7 8 8 8 9 9 9 9 9 8 8 8 8 8 7 6 6 6 6 6 5 5 4 4 4 4 3 1 -0 -2 -4 -4 -5 -5 -4 -2 -4 1 2 3 2 4
8 9 8 8 8 9 8 8 8 8 8 8 8 8 7 6 6 6 6 6 5 5 4 4 4 4 3 2 0 -1 -2 -3 -4 -5 -5 -5 -5 -4 -3 1 1 1 2
9 8 9 9 9 8 8 8 8 8 8 8 7 7 6 6 6 6 6 6 5 4 4 4 4 3 2 1 -0 -0 -2 -3 -4 -5 -5 -5 -4 -4 -3 -2 -1 -0 1
8 8 9 9 8 8 8 8 8 8 8 7 7 7 6 6 6 6 6 5 4 3 4 4 4 3 2 1 0 -0 -2 -3 -4 -5 -5 -6 -6 -5 -4 -3 -3 -2 -1
7 6 9 8 8 8 8 7 7 7 7 7 6 6 6 6 6 6 5 4 3 4 4 3 3 2 1 0 -0 -1 -2 -2 -4 -5 -7 -7 -6 -5 -4 -3 -3 -2 -1
6 6 9 9 8 8 8 7 7 6 6 6 6 6 6 6 5 5 4 3 4 4 3 2 2 1 1 0 -1 -2 -2 -2 -4 -5 -6 -7 -7 -5 -4 -4 -3 -2 -1
6 6 8 9 9 8 8 7 6 6 5 5 6 6 5 5 5 4 3 3 3 2 2 1 1 0 0 -0 -1 -2 -2 -3 -4 -5 -6 -7 -6 -5 -4 -4 -3 -3 -2
6 4 6 8 8 8 7 6 6 5 5 5 5 5 5 5 4 3 3 2 2 1 1 0 -0 -0 0 -1 -1 -1 -2 -3 -3 -4 -6 -7 -6 -6 -5 -4 -3 -2 -2
4 4 5 7 8 7 7 6 5 5 5 5 5 4 4 4 3 2 2 2 1 0 -0 -0 -1 -1 -0 -1 -1 -2 -2 -2 -3 -4 -4 -6 -6 -6 -5 -4 -3 -2 -1
4 4 5 7 8 8 7 6 4 4 5 4 4 4 3 3 2 2 1 1 0 -0 -1 -1 -1 -1 -1 -1 -1 -2 -2 -2 -2 -3 -4 -5 -6 -5 -5 -4 -3 -2 -1
2 3 5 7 8 7 6 4 4 4 4 4 3 3 3 2 1 1 0 0 -0 -1 -1 -2 -2 -2 -1 -1 -2 -2 -3 -2 -2 -3 -4 -4 -6 -5 -6 -5 -3 -2 -1
4 4 6 7 7 6 5 4 4 4 4 3 3 2 2 1 1 0 -0 -1 -1 -1 -1 -2 -3 -2 -2 -2 -3 -3 -3 -3 -2 -3 -4 -3 -5 -5 -6 -5 -4 -4 -3
5 6 7 8 7 5 4 4 4 3 3 3 2 2 1 1 -0 -1 -1 -1 -1 -2 -2 -3 -3 -3 -3 -3 -3 -3 -3 -3 -3 -3 -4 -4 -4 -4 -5 -5 -5 -4 -4
7 7 7 7 7 7 5 4 3 3 2 2 1 1 1 0 -1 -1 -1 -2 -2 -2 -3 -3 -3 -3 -3 -4 -4 -4 -4 -3 -4 -4 -4 -4 -5 -5 -4 -4 -4 -4 -4
10 9 10 10 8 7 5 4 3 2 2 1 1 0 -0 -1 -1 -1 -2 -3 -3 -3 -3 -3 -4 -4 -4 -4 -4 -5 -5 -4 -4 -4 -5 -4 -5 -5 -5 -5 -4 -4 -4
12 11 11 9 8 7 5 4 2 2 1 1 0 -0 -1 -1 -2 -2 -3 -4 -4 -4 -4 -4 -4 -5 -5 -5 -5 -5 -5 -5 -4 -5 -5 -5 -5 -6 -6 -5 -4 -4 -4
12 12 11 10 8 7 5 3 2 2 1 0 0 -0 -1 -2 -3 -3 -4 -5 -5 -5 -5 -5 -6 -6 -6 -6 -6 -6 -6 -6 -5 -5 -6 -6 -6 -6 -6 -6 -5 -6 -6
10 11 10 9 7 6 4 3 2 2 1 1 -0 -1 -2 -3 -3 -4 -5 -5 -5 -5 -6 -6 -7 -7 -7 -7 -7 -7 -7 -7 -6 -6 -7 -7 -7 -7 -7 -6 -7 -6 -8
10 9 9 9 8 7 5 3 2 2 1 0 -1 -2 -2 -3 -4 -5 -6 -6 -6 -6 -6 -7 -8 -8 -7 -7 -7 -7 -7 -7 -7 -7 -8 -8 -7 -8 -8 -7 -8 -8 -9
9 9 9 8 8 6 5 4 3 2 0 -1 -1 -2 -3 -4 -5 -6 -6 -7 -7 -7 -8 -8 -8 -9 -9 -9 -7 -7 -7 -8 -8 -8 -8 -8 -8 -8 -8 -8 -9 -10 -9
9 9 8 7 6 5 4 3 2 1 -0 -1 -2 -3 -4 -5 -5 -6 -7 -7 -8 -8 -8 -8 -9 -9 -9 -10 -9 -8 -8 -8 -8 -8 -9 -9 -9 -9 -9 -9 -10 -9 -9
8 8 7 6 6 4 3 1 1 0 -1 -2 -3 -4 -4 -5 -6 -7 -8 -8 -8 -8 -9 -9 -9 -9 -9 -10 -10 -10 -9 -9 -9 -9 -9 -10 -10 -10 -10 -10 -10 -10 -10
8 7 6 6 5 3 2 0 -0 -1 -1 -3 -3 -4 -5 -6 -6 -7 -7 -8 -8 -9 -10 -10 -9 -9 -10 -10 -9 -9 -10 -10 -10 -10 -10 -10 -11 -11 -11 -11 -11 -11 -11
7 6 5 5 4 3 1 0 -1 -1 -2 -3 -4 -4 -5 -6 -7 -8 -9 -9 -10 -10 -10 -10 -10 -10 -10 -10 -9 -9 -10 -10 -10 -11 -11 -11 -11 -11 -11 -12 -12 -12 -12

GFSMW_850_temp_162.txt.gz
Temp
12 10 9 8 7 8 10 10 10 11 11 10 10 9 9 9 8 8 8 8 8 8 8 7 7 7 6 6 5 3 2 2 -1 -1 -0 2 3 4 3 2 2 3 3
12 9 8 7 7 8 9 9 10 10 10 10 9 8 8 8 8 7 7 7 7 7 7 7 7 6 5 5 4 4 3 -0 -3 -4 -3 1 4 4 4 3 2 2 3
12 9 8 7 6 7 8 9 10 10 9 9 9 8 8 8 7 7 7 7 7 7 6 6 5 5 4 4 4 2 1 -2 -2 -4 -4 -3 -0 -3 2 2 2 2 2
12 10 8 7 6 6 7 8 9 9 9 9 8 8 5 5 7 7 6 6 6 5 5 5 5 5 4 3 1 1 1 -1 -4 -4 -5 -6 -5 -4 -3 0 0 0 2
12 10 9 8 7 6 5 8 9 9 9 8 8 7 7 7 7 6 6 5 5 5 5 5 5 4 3 2 1 1 1 -2 -5 -6 -6 -6 -6 -5 -4 -3 -2 -2 -0
12 11 9 8 7 5 5 7 8 8 8 8 8 7 7 7 6 5 3 4 4 4 4 5 4 3 2 1 1 1 -2 -3 -4 -5 -6 -7 -7 -6 -6 -5 -4 -3 -2
11 10 9 7 6 5 4 7 8 8 8 8 7 7 7 6 5 4 4 4 4 4 4 4 3 2 1 1 1 -1 -4 -4 -3 -5 -7 -8 -7 -7 -6 -5 -4 -3 -2
10 10 8 7 6 4 6 8 8 8 8 8 7 6 6 5 4 4 5 4 4 4 4 3 2 2 1 1 0 -3 -3 -4 -4 -5 -6 -7 -7 -7 -7 -6 -5 -4 -2
10 9 8 6 5 6 7 8 7 7 7 8 6 6 5 4 4 4 5 4 4 4 3 2 2 1 1 1 0 -2 -1 -4 -6 -5 -6 -7 -7 -6 -6 -5 -5 -4 -3
10 8 7 6 5 7 8 8 8 6 7 7 6 5 4 4 4 4 4 4 4 3 2 2 1 1 1 1 -0 -2 -1 -2 -6 -6 -5 -6 -7 -6 -5 -5 -5 -4 -3
10 8 7 6 4 4 7 7 7 6 7 6 5 4 4 4 4 4 4 3 3 2 1 1 1 1 1 -0 -1 -1 -1 -2 -4 -5 -3 -5 -7 -6 -4 -5 -4 -3 -3
9 8 6 4 3 5 6 7 7 7 6 5 5 4 4 4 3 3 3 3 2 1 1 0 0 0 -0 -1 -1 -1 -2 -2 -2 -3 -3 -3 -6 -6 -4 -4 -4 -3 -3
8 6 3 3 2 4 6 7 8 7 5 5 4 3 3 3 3 3 3 2 1 1 -0 -1 -0 -0 -1 -1 -1 -2 -2 -2 -2 -3 -4 -3 -4 -4 -4 -4 -4 -4 -4
7 5 3 1 3 4 7 7 7 4 4 4 3 3 3 3 3 2 2 1 1 -1 -1 -1 -1 -1 -1 -1 -2 -2 -2 -2 -3 -3 -4 -4 -4 -3 -4 -4 -4 -5 -5
6 4 3 2 2 5 6 5 4 4 4 3 3 2 2 2 2 1 1 0 -1 -2 -2 -2 -2 -2 -2 -2 -2 -3 -3 -2 -3 -4 -4 -5 -5 -4 -3 -4 -4 -4 -5
6 4 3 2 3 3 4 4 4 4 3 2 2 2 2 1 1 1 -0 -1 -2 -2 -2 -2 -2 -2 -2 -3 -3 -3 -3 -3 -3 -4 -4 -5 -4 -5 -5 -4 -4 -4 -4
7 7 7 6 6 5 6 5 4 3 3 2 2 1 1 1 0 -0 -1 -2 -2 -2 -3 -2 -2 -2 -3 -3 -3 -3 -3 -3 -3 -4 -4 -4 -5 -5 -5 -4 -4 -4 -4
8 7 7 8 7 6 4 3 3 3 2 2 1 1 1 -0 -1 -1 -2 -3 -3 -3 -3 -3 -3 -3 -4 -4 -4 -4 -4 -4 -4 -4 -4 -5 -5 -5 -5 -5 -5 -4 -5
11 13 12 9 6 5 5 4 3 2 2 2 2 1 0 -1 -1 -2 -3 -3 -3 -3 -4 -4 -4 -5 -5 -5 -5 -5 -5 -5 -5 -5 -5 -5 -5 -6 -6 -6 -6 -6 -6
11 10 9 7 6 7 5 4 3 2 1 2 2 1 -0 -1 -2 -3 -3 -4 -4 -5 -5 -5 -6 -6 -6 -6 -6 -6 -8 -7 -8 -7 -6 -6 -6 -6 -6 -6 -6 -6 -7
10 10 9 9 9 7 5 4 3 2 2 2 1 -0 -1 -2 -3 -4 -4 -4 -5 -6 -6 -7 -7 -7 -7 -6 -7 -6 -7 -8 -9 -11 -9 -7 -7 -7 -7 -7 -7 -7 -7
9 9 9 8 7 6 5 4 3 3 2 1 0 -1 -2 -3 -4 -4 -5 -6 -7 -7 -8 -10 -10 -10 -8 -7 -7 -7 -7 -7 -8 -8 -8 -8 -8 -8 -8 -8 -9 -9 -8
8 8 8 7 6 5 5 4 3 2 1 0 -1 -2 -3 -4 -4 -4 -5 -7 -8 -10 -10 -10 -10 -11 -11 -10 -7 -8 -8 -8 -8 -8 -8 -8 -8 -9 -9 -9 -9 -9 -9
7 8 7 7 6 5 4 3 3 1 0 -0 -2 -3 -4 -4 -5 -6 -7 -9 -10 -10 -10 -10 -10 -11 -11 -12 -11 -8 -8 -8 -9 -9 -9 -9 -9 -9 -9 -9 -9 -9 -10
7 6 6 6 5 4 3 2 1 1 -1 -2 -2 -3 -5 -5 -6 -7 -7 -10 -9 -10 -10 -10 -10 -10 -11 -12 -10 -9 -9 -9 -9 -9 -10 -10 -10 -11 -10 -10 -10 -10 -11
7 6 6 6 5 4 3 1 1 -0 -1 -2 -3 -4 -6 -8 -9 -10 -10 -10 -10 -9 -9 -10 -10 -9 -10 -9 -9 -8 -9 -9 -10 -10 -11 -11 -11 -11 -11 -12 -12 -11 -11

GFSMW_850_temp_165.txt.gz
Temp
18 16 14 13 12 10 9 8 9 11 11 11 10 10 10 10 10 10 9 9 9 9 9 8 8 8 7 6 6 5 3 2 1 2 5 4 5 5 5 4 5 4 2
18 16 13 12 11 10 9 8 8 11 10 8 8 7 8 8 9 8 9 9 8 8 8 8 7 7 5 2 3 2 4 0 -1 -1 -0 2 5 5 5 4 4 3 1
19 16 13 12 11 9 8 8 7 9 8 7 8 9 9 9 8 8 8 8 8 7 7 7 6 6 3 2 1 1 1 -0 -1 -2 -3 -2 0 -3 2 3 2 2 0
19 16 13 11 10 9 8 8 7 7 6 8 7 9 7 7 6 5 6 6 7 7 7 6 6 5 3 2 1 2 1 0 -3 -3 -4 -4 -5 -4 -3 -0 0 -1 -1
20 17 13 12 10 9 8 7 7 6 7 8 6 7 7 6 6 6 6 6 7 6 6 5 5 3 1 2 2 2 -1 -3 -3 -4 -5 -6 -5 -5 -4 -4 -3 -3 -3
19 17 14 12 10 9 8 7 6 6 6 8 7 6 5 5 4 4 4 3 4 4 5 4 3 2 3 3 2 1 -3 -4 -3 -3 -6 -6 -6 -6 -6 -5 -5 -4 -3
19 17 14 12 10 9 7 6 6 6 7 9 8 8 7 7 4 4 3 3 1 0 3 3 2 2 3 3 2 -1 -2 -4 -2 -3 -6 -7 -6 -6 -6 -6 -5 -5 -3
17 16 14 11 10 9 7 6 6 5 7 8 8 7 7 6 7 5 4 2 1 2 3 2 2 3 3 3 1 -3 -2 -4 -5 -6 -5 -6 -6 -6 -6 -6 -5 -5 -3
16 15 14 11 10 8 6 6 6 5 6 7 7 7 6 7 6 6 4 3 3 3 3 3 2 2 2 2 1 -2 -0 -3 -5 -6 -3 -5 -6 -6 -6 -6 -5 -4 -4
16 14 13 11 9 7 6 5 5 5 6 7 7 6 7 7 6 4 4 4 4 3 3 2 2 2 2 2 1 -0 0 -2 -5 -6 -3 -4 -7 -7 -6 -6 -5 -5 -5
15 13 12 10 8 7 5 4 4 3 5 7 6 7 7 7 5 4 4 4 3 3 2 2 2 2 2 2 1 1 -0 -1 -3 -3 -3 -4 -6 -7 -7 -6 -5 -5 -5
14 12 11 9 8 6 4 3 3 5 7 7 7 7 7 6 5 4 4 4 3 2 1 1 1 1 1 1 1 0 -0 -1 -1 -2 -2 -3 -3 -5 -6 -6 -5 -5 -5
13 11 9 7 7 5 3 2 2 5 8 6 8 7 6 5 4 4 4 2 1 1 1 1 1 1 1 0 -0 -1 -1 -2 -2 -2 -2 -2 -3 -3 -5 -6 -6 -5 -6
12 11 8 6 5 3 2 1 2 5 7 7 6 6 5 5 4 3 2 1 1 0 0 -0 0 0 0 -1 -1 -1 -2 -2 -2 -3 -2 -3 -4 -3 -3 -5 -5 -6 -6
11 10 7 5 3 1 2 2 4 5 7 6 5 6 5 4 3 2 1 -0 -0 -1 -2 -2 -2 -2 -1 -1 -1 -2 -2 -3 -4 -4 -4 -3 -4 -5 -3 -3 -4 -6 -7
10 9 7 5 2 1 2 3 5 6 5 5 5 4 4 3 2 1 -1 -1 -0 -0 -0 -1 -1 -2 -2 -2 -2 -2 -2 -2 -3 -3 -4 -4 -4 -5 -5 -4 -4 -4 -5
10 8 6 5 3 1 4 5 6 4 4 4 4 4 3 2 1 -0 -1 0 -0 -0 -1 -2 -2 -2 -2 -3 -3 -3 -2 -3 -3 -3 -4 -4 -4 -4 -5 -4 -4 -4 -4
11 8 6 5 3 2 0 0 1 3 3 3 3 3 2 2 0 0 -0 -1 -1 -1 -2 -3 -3 -3 -3 -3 -3 -3 -3 -3 -4 -4 -4 -4 -4 -5 -5 -5 -4 -5 -5
11 9 7 5 4 3 2 4 3 3 3 4 3 3 2 1 0 -1 -1 -1 -2 -2 -3 -3 -4 -4 -4 -4 -4 -4 -6 -5 -5 -5 -5 -5 -5 -5 -5 -5 -5 -5 -6
11 10 8 6 4 3 4 1 0 2 2 2 2 2 1 1 -0 -1 -1 -2 -3 -3 -4 -4 -5 -4 -4 -4 -5 -5 -9 -9 -8 -7 -6 -6 -5 -6 -6 -6 -6 -6 -7
10 9 7 6 4 2 1 1 1 2 1 1 1 1 1 -0 -1 -2 -3 -3 -4 -5 -5 -5 -5 -5 -5 -5 -5 -6 -8 -10 -10 -11 -8 -7 -6 -6 -6 -6 -6 -6 -7
7 8 7 6 6 5 7 4 1 2 1 0 0 1 -0 -1 -2 -3 -5 -7 -8 -8 -9 -9 -8 -8 -7 -6 -6 -6 -7 -7 -9 -10 -7 -7 -7 -7 -7 -7 -7 -8 -8
6 5 6 5 4 2 7 3 1 1 -0 -0 0 -0 -2 -2 -3 -3 -4 -8 -8 -8 -8 -8 -8 -9 -10 -8 -7 -7 -7 -8 -8 -7 -7 -8 -8 -7 -8 -8 -8 -8 -11
4 5 4 4 3 3 2 2 2 1 0 -0 -1 -1 -2 -3 -4 -5 -6 -8 -8 -8 -8 -8 -8 -9 -10 -11 -8 -7 -8 -8 -8 -8 -8 -8 -9 -9 -9 -10 -10 -10 -10
2 5 4 4 4 3 2 2 1 1 -0 -1 -1 -2 -3 -4 -5 -7 -8 -8 -9 -9 -8 -9 -9 -9 -10 -10 -11 -11 -11 -9 -9 -9 -9 -11 -12 -13 -13 -12 -11 -11 -12
1 1 4 5 5 4 3 2 1 0 -0 -1 -3 -3 -5 -7 -7 -8 -9 -9 -9 -9 -9 -9 -9 -9 -10 -10 -10 -10 -9 -9 -9 -10 -13 -13 -13 -13 -13 -13 -14 -12 -11

GFSMW_850_temp_171.txt.gz
Temp
17 17 16 15 14 14 13 12 11 10 9 9 10 10 11 11 11 10 11 10 10 10 10 11 10 11 11 10 10 9 9 10 10 10 10 9 8 6 5 5 4 4 3
18 16 16 15 14 14 13 12 11 9 8 9 9 10 10 10 10 10 10 10 10 10 10 10 10 10 10 9 9 9 8 8 8 7 7 8 7 6 5 5 3 3 2
19 17 16 16 15 14 14 13 12 10 8 8 8 8 8 8 8 9 9 9 9 9 9 10 9 9 9 9 8 8 8 7 6 6 4 2 2 3 5 4 3 2 1
21 18 16 15 15 14 14 12 12 11 9 8 8 8 9 10 9 9 9 9 9 9 9 9 9 9 9 8 8 8 7 6 5 4 4 2 -1 -2 -1 1 2 -0 -1
22 18 17 16 16 14 13 12 11 11 10 8 7 7 9 9 9 8 8 9 8 8 8 8 8 8 8 7 7 7 7 5 4 4 3 3 0 -4 -5 -5 -3 1 -1
22 20 16 15 14 13 12 11 11 10 9 7 7 8 8 8 8 8 8 8 8 8 8 8 8 7 7 6 6 6 5 5 4 3 3 2 -2 -5 -5 -5 -5 -4 -1
23 18 14 13 11 11 11 11 10 9 8 7 7 7 7 8 8 9 9 8 8 8 8 7 7 6 6 5 6 5 4 3 3 2 2 1 -2 -5 -5 -5 -5 -5 -3
22 18 14 13 12 11 10 10 9 9 8 7 7 7 7 7 7 8 8 8 8 8 6 6 6 6 5 5 5 4 3 3 3 2 1 1 -1 -3 -5 -6 -5 -5 -5
20 17 13 12 10 10 10 10 9 9 8 7 7 6 6 7 7 8 8 8 7 6 6 6 5 5 4 4 5 3 3 2 2 1 1 -0 -1 -2 -4 -5 -5 -5 -5
16 14 12 11 9 9 9 9 9 8 7 7 6 6 6 7 7 8 7 7 6 6 5 5 5 4 4 4 4 3 2 1 1 0 0 0 0 -0 -3 -4 -4 -5 -5
14 13 11 11 11 10 9 8 8 7 7 6 6 6 6 6 6 6 7 6 5 5 5 5 4 4 3 3 3 2 1 1 0 0 -0 0 1 -0 -1 -2 -4 -6 -6
14 12 11 10 9 8 8 8 7 7 6 6 6 5 5 5 6 6 6 5 5 6 5 4 4 3 3 3 2 1 0 -0 -0 -0 -0 0 0 0 -1 -2 -2 -6 -6
14 12 10 10 9 8 8 7 7 6 6 6 5 5 5 6 6 5 5 5 6 5 4 3 3 2 2 2 1 0 -0 -0 -0 0 -0 0 0 0 -1 -2 -2 -3 -5
12 12 10 10 9 8 8 7 6 6 6 6 5 5 5 5 5 5 5 4 6 4 3 2 2 2 2 1 0 -0 -1 -1 -0 -1 -0 -0 0 -0 -1 -1 -2 -3 -3
11 12 11 9 8 7 7 6 6 5 6 5 5 6 4 4 4 4 2 4 5 3 2 2 1 1 1 -0 -0 -1 -1 -0 -0 -0 -0 -0 -0 -1 -1 -2 -2 -2 -3
13 12 11 10 9 8 6 6 6 5 5 4 4 5 3 4 3 1 2 4 4 2 1 1 2 0 -1 -1 -1 -1 -1 -1 -0 -0 -1 -1 -1 -2 -2 -2 -2 -2 -3
13 11 11 10 9 7 6 6 5 5 4 3 3 4 3 1 2 1 3 4 2 1 1 2 1 -1 -2 -1 -1 -2 -2 -1 -1 -1 -1 -2 -2 -3 -3 -3 -3 -3 -3
13 12 11 9 9 7 6 5 4 4 3 2 2 3 3 2 0 2 2 2 0 1 1 0 -2 -2 -2 -2 -2 -2 -2 -2 -2 -2 -2 -3 -3 -3 -3 -4 -4 -4 -4
13 13 12 10 8 7 5 4 4 4 3 3 3 2 2 1 2 3 2 0 0 -0 -0 -2 -2 -2 -2 -2 -3 -3 -2 -2 -2 -2 -3 -3 -3 -4 -4 -4 -4 -5 -5
13 13 11 10 8 6 5 4 3 2 2 3 3 3 1 1 3 2 1 -0 -1 -1 -1 -2 -2 -3 -3 -3 -3 -3 -3 -3 -3 -3 -4 -4 -4 -4 -4 -5 -5 -5 -5
12 11 11 10 8 6 5 3 2 2 2 2 2 -0 1 2 1 -2 -1 -1 -2 -2 -2 -2 -3 -4 -3 -4 -4 -4 -3 -3 -3 -4 -5 -5 -5 -5 -5 -5 -6 -5 -5
10 9 10 9 8 6 4 2 2 1 1 1 0 0 1 -1 -1 -2 -2 -2 -2 -2 -2 -4 -4 -4 -4 -5 -5 -5 -4 -4 -4 -5 -6 -5 -6 -6 -6 -6 -6 -6 -6
8 8 8 7 5 4 4 2 2 1 -0 0 0 1 1 0 -2 -4 -3 -3 -3 -3 -3 -4 -4 -4 -5 -5 -5 -5 -6 -6 -6 -6 -7 -6 -6 -7 -7 -7 -7 -7 -7
8 7 6 6 5 3 3 2 0 1 -1 1 1 -0 -1 -2 -3 -3 -3 -3 -3 -3 -4 -5 -5 -5 -5 -5 -6 -6 -6 -7 -7 -7 -8 -8 -8 -8 -7 -8 -8 -8 -8
6 6 4 4 4 3 2 1 1 1 -1 -1 -1 -2 -2 -3 -3 -3 -3 -4 -3 -3 -4 -5 -5 -5 -5 -5 -7 -7 -7 -7 -8 -8 -8 -9 -9 -9 -8 -9 -9 -9 -9
5 4 3 3 3 2 2 2 1 1 0 -1 -3 -2 -3 -3 -3 -4 -5 -6 -6 -6 -7 -7 -7 -7 -7 -8 -8 -8 -8 -8 -8 -9 -9 -9 -10 -10 -11 -10 -9 -10 -10

GFSMW_850_temp_174.txt.gz
Temp
23 19 18 14 14 13 13 12 12 11 11 10 9 9 10 10 10 11 11 11 11 10 10 10 11 10 10 10 11 11 11 11 11 10 10 8 7 7 5 5 5 5 4
16 17 16 14 13 13 13 12 12 12 11 10 10 10 10 10 10 10 10 10 10 10 9 10 10 10 10 10 10 10 10 10 10 10 10 8 6 5 5 4 3 3 2
17 16 15 14 13 13 12 13 12 12 12 10 9 9 9 9 8 9 9 9 9 9 9 9 9 9 9 9 9 9 9 9 8 8 9 8 7 6 6 4 2 2 1
18 19 16 13 14 13 13 13 13 12 12 10 10 11 10 8 9 9 8 8 8 8 8 8 8 9 9 9 9 9 8 7 8 8 7 6 5 4 6 5 2 1 0
21 17 14 15 16 13 13 13 12 11 11 10 10 9 9 9 9 8 7 7 7 7 8 8 8 8 8 8 8 8 7 7 7 7 6 5 4 2 -1 -1 2 -0 -1
20 20 18 14 13 11 11 11 11 11 11 10 9 8 8 9 8 7 7 7 7 7 7 7 7 8 8 7 7 7 6 6 6 6 6 5 3 0 -4 -5 -4 -1 -2
20 20 16 13 11 10 10 10 11 11 10 9 9 8 9 8 8 8 7 7 7 7 7 7 7 7 7 7 7 7 6 6 6 6 5 4 3 1 -2 -5 -5 -5 -2
20 19 17 14 12 11 11 10 10 10 10 9 9 9 9 8 8 8 7 7 7 6 6 6 7 6 7 6 6 6 6 6 5 5 4 4 3 1 -3 -4 -5 -5 -5
19 19 18 14 10 8 8 8 9 10 10 9 8 7 7 8 7 7 6 6 6 5 6 6 6 6 5 5 5 5 5 5 4 5 4 3 2 1 -2 -3 -4 -5 -5
16 16 13 10 8 7 6 7 8 9 8 7 7 7 7 7 8 7 7 6 5 5 6 6 5 4 5 5 4 4 4 4 4 4 3 2 2 0 -1 -1 -3 -6 -5
11 11 10 8 7 6 6 6 8 9 9 6 7 7 7 7 6 7 6 6 5 6 5 4 3 6 5 4 4 3 3 4 3 3 2 2 1 -0 -0 -1 -2 -5 -5
11 10 9 8 7 7 7 8 8 8 7 7 7 7 7 6 6 6 6 4 5 5 4 3 5 5 4 3 3 3 3 3 3 2 1 1 0 0 0 0 -0 -3 -5
11 11 10 9 9 8 8 8 7 7 7 7 7 6 6 6 6 5 5 4 4 5 3 4 5 4 3 3 2 2 3 3 2 1 0 -0 -0 0 0 0 -0 -2 -3
11 10 10 9 9 9 10 9 7 7 7 7 6 6 5 5 5 4 4 4 4 3 2 4 4 3 3 2 2 2 2 2 1 0 -1 -1 -1 0 0 0 -0 -1 -2
12 11 11 10 8 7 7 7 8 7 8 7 6 5 5 5 4 4 3 3 3 0 2 3 4 2 2 2 2 2 2 1 0 -0 -2 -1 -1 -0 0 -0 -1 -1 -2
11 12 12 10 9 8 8 7 7 7 7 6 5 5 5 4 4 4 3 3 1 1 1 2 3 2 2 1 2 1 1 0 -1 -1 -2 -2 -2 -1 -1 -1 -1 -1 -2
12 11 11 11 11 9 9 7 7 6 6 6 5 4 4 4 4 2 3 1 1 -1 0 2 2 1 1 1 1 0 -0 -1 -2 -2 -2 -2 -1 -2 -2 -2 -2 -2 -3
13 12 11 11 9 8 7 7 6 5 5 4 4 3 3 3 3 3 2 2 -1 -1 0 1 1 0 1 1 -0 -0 -1 -2 -3 -3 -3 -2 -2 -2 -2 -2 -2 -3 -3
13 13 13 12 9 9 8 6 5 5 4 3 3 3 2 3 1 1 2 -1 -1 -0 0 0 0 -0 -0 -0 -1 -2 -2 -3 -3 -3 -3 -3 -3 -3 -3 -3 -3 -3 -4
12 12 12 10 10 9 7 6 5 4 3 3 3 2 2 2 0 2 -1 -2 -2 -0 -0 -1 -2 -2 -2 -1 -2 -3 -3 -4 -4 -3 -4 -4 -3 -3 -4 -4 -4 -4 -5
11 12 11 12 11 9 7 5 4 4 4 3 2 1 1 -0 -0 -1 -3 -2 -2 -1 -2 -2 -2 -2 -3 -2 -2 -4 -4 -5 -4 -4 -4 -4 -4 -4 -4 -4 -5 -5 -5
10 10 9 9 8 7 5 4 4 3 3 4 2 1 -0 -0 -1 -1 -3 -4 -2 -2 -3 -3 -3 -4 -4 -4 -4 -4 -5 -6 -6 -6 -5 -5 -5 -4 -5 -6 -6 -6 -6
9 8 8 7 6 6 6 5 3 3 1 1 2 0 -0 -1 -1 -2 -2 -2 -3 -3 -3 -3 -3 -4 -4 -5 -5 -5 -6 -8 -8 -7 -6 -6 -6 -6 -6 -7 -7 -7 -7
8 8 7 6 6 5 4 4 4 3 1 0 -1 -1 -1 -2 -2 -3 -2 -1 -2 -3 -4 -3 -3 -4 -4 -5 -6 -7 -8 -9 -9 -8 -7 -7 -7 -7 -7 -7 -8 -8 -8
7 7 6 5 4 3 3 3 2 2 0 -1 -2 -2 -3 -2 -2 -2 -2 -2 -3 -3 -2 -2 -3 -3 -4 -4 -6 -7 -7 -8 -8 -8 -8 -8 -8 -8 -9 -9 -9 -9 -9
5 5 4 3 3 3 2 2 1 1 0 -1 -2 -2 -2 -3 -3 -4 -4 -4 -4 -4 -4 -5 -5 -5 -7 -7 -7 -8 -9 -9 -9 -8 -8 -8 -9 -9 -10 -10 -10 -10 -10